This demonstration page uses our WeatherBlox Daily Observations layout. Learn more.

40.92945, -100.16068

Hourly Observations for May 8, 2018

Temp ( °F °C ) Dew Point ( °F °C ) Humidity (%) Winds ( mph kmh ) Pressure ( in mb ) Visibility ( mi km ) Precip ( " mm )
12:15 am 00:15 Clear 72 22.2 49 9.3 44 44 SSE 15 24 29.83 1010 10 16.0934 0 0
12:35 am 00:35 Clear 71 21.7 49 9.5 46 46 SSE 14 22 29.83 1010 10 16.0934 0 0
12:55 am 00:55 Clear 70 21.2 49 9.6 48 48 SSE 12 19 29.83 1010 10 16.0934 0 0
1:15 am 01:15 Clear 70 21.1 49 9.6 48 48 SE 10 17 29.83 1010 10 16.0934 0 0
1:35 am 01:35 Clear 70 21.2 49 9.6 48 48 SSE 12 19 29.8 1009 10 16.0934 0 0
1:55 am 01:55 Clear 69 20.5 50 9.8 50 50 SSE 10 17 29.8 1009 10 16.0934 0 0
2:15 am 02:15 Clear 69 20.5 50 9.8 50 50 SSE 15 24 29.8 1009 10 16.0934 0 0
2:35 am 02:35 Clear 68 20 50 10 53 53 SSE 10 17 29.8 1009 10 16.0934 0 0
2:55 am 02:55 Clear 68 19.8 50 10 53 53 SE 9 15 29.8 1009 10 16.0934 0 0
3:15 am 03:15 Clear 66 19 50 10.2 57 57 SSE 9 15 29.77 1008 10 16.0934 0 0
3:35 am 03:35 Clear 65 18.4 50 10.2 59 59 SE 9 15 29.77 1008 10 16.0934 0 0
3:55 am 03:55 Clear 65 18.1 51 10.4 61 61 SE 7 11 29.8 1009 10 16.0934 0 0
4:15 am 04:15 Clear 64 17.7 51 10.4 62 62 SE 8 13 29.8 1009 10 16.0934 0 0
4:35 am 04:35 Clear 62 16.6 51 10.5 67 67 SE 7 11 29.77 1008 10 16.0934 0 0
4:55 am 04:55 Clear 61 16.2 51 10.3 68 68 SSE 7 11 29.77 1008 10 16.0934 0 0
5:15 am 05:15 Clear 59 15 50 10.2 73 73 NE 3 6 29.77 1008 10 16.0934 0 0
5:35 am 05:35 Clear 58 14.3 50 9.9 75 75 E 6 9 29.8 1009 10 16.0934 0 0
5:55 am 05:55 Clear 55 12.5 49 9.4 82 82 ESE 6 9 29.8 1009 10 16.0934 0 0
6:15 am 06:15 Clear 55 12.6 49 9.5 82 82 N 12 19 29.83 1010 10 16.0934 0 0
6:35 am 06:35 Sunny 55 13 49 9.5 79 79 NNE 5 7 29.83 1010 10 16.0934 0 0
6:55 am 06:55 Sunny 54 12.2 49 9.3 83 83 SE 5 7 29.83 1010 10 16.0934 0 0
7:15 am 07:15 Sunny 55 12.9 50 9.9 82 82 NNE 5 7 29.83 1010 10 16.0934 0 0
7:35 am 07:35 Sunny 57 13.8 51 10.7 82 82 NNE 5 7 29.85 1011 10 16.0934 0 0
7:55 am 07:55 Sunny 59 15.2 53 11.4 78 78 NNE 8 13 29.85 1011 10 16.0934 0 0
8:15 am 08:15 Sunny 61 16.2 53 11.6 74 74 NE 7 11 29.83 1010 10 16.0934 0 0
8:35 am 08:35 Sunny 65 18.3 55 12.6 70 70 NE 9 15 29.83 1010 10 16.0934 0 0
8:55 am 08:55 Sunny 66 19 54 12.3 65 65 NE 7 11 29.8 1009 10 16.0934 0 0
9:15 am 09:15 Sunny 66 18.9 54 12.1 65 65 ENE 9 15 29.8 1009 10 16.0934 0 0
9:35 am 09:35 Sunny 66 19 54 12.3 65 65 NE 8 13 29.8 1009 10 16.0934 0 0
9:55 am 09:55 Sunny 67 19.2 55 12.5 65 65 NE 8 13 29.8 1009 10 16.0934 0 0
10:15 am 10:15 Sunny 67 19.7 55 12.6 64 64 ENE 12 19 29.77 1008 10 16.0934 0 0
10:35 am 10:35 Partly Cloudy 67 19.6 54 12.4 63 63 N 10 17 29.8 1009 10 16.0934 0 0
10:55 am 10:55 Sunny 69 20.5 55 12.7 61 61 NNW 9 15 29.83 1010 10 16.0934 0 0
11:15 am 11:15 Sunny 69 20.4 55 12.7 61 61 NNW 3 6 29.83 1010 10 16.0934 0 0
11:35 am 11:35 Partly Cloudy 69 20.8 55 12.7 60 60 N 12 19 29.8 1009 10 16.0934 0 0
11:55 am 11:55 Partly Cloudy 71 21.6 55 12.9 58 58 NNW 12 19 29.83 1010 10 16.0934 0 0
12:15 pm 12:15 Partly Cloudy 74 23.1 56 13.1 53 53 NNW 21 33 29.8 1009 10 16.0934 0 0
12:35 pm 12:35 Sunny 74 23.1 54 12.2 50 50 N 17 28 29.8 1009 10 16.0934 0 0
12:55 pm 12:55 Sunny 75 24.1 53 11.9 47 47 N 20 31 29.8 1009 10 16.0934 0 0
1:15 pm 13:15 Sunny 78 25.6 54 12.2 43 43 N 20 31 29.8 1009 10 16.0934 0 0
1:35 pm 13:35 Sunny 79 26 54 12.1 42 42 N 22 35 29.77 1008 10 16.0934 0 0
1:55 pm 13:55 Sunny 78 25.5 54 12.1 43 43 N 18 30 29.8 1009 10 16.0934 0 0
2:15 pm 14:15 Sunny 79 26.2 54 12 41 41 N 21 33 29.77 1008 10 16.0934 0 0
2:35 pm 14:35 Sunny 80 26.7 52 11.1 38 38 NNE 16 26 29.77 1008 10 16.0934 0 0
2:55 pm 14:55 Sunny 81 27.4 50 10 34 34 NNW 22 35 29.77 1008 10 16.0934 0 0
3:15 pm 15:15 Sunny 81 27.2 51 10.4 35 35 N 18 30 29.77 1008 10 16.0934 0 0
3:35 pm 15:35 Sunny 82 27.6 52 11.3 36 36 N 17 28 29.77 1008 10 16.0934 0 0
3:55 pm 15:55 Partly Cloudy 81 27.4 52 11.1 36 36 N 21 33 29.77 1008 10 16.0934 0 0
4:15 pm 16:15 Sunny 82 27.6 49 9.7 33 33 N 20 31 29.77 1008 10 16.0934 0 0
4:35 pm 16:35 Partly Cloudy 82 27.6 50 10.1 33 33 N 18 30 29.74 1007 10 16.0934 0 0
4:55 pm 16:55 Sunny 82 27.8 48 8.9 31 31 N 16 26 29.74 1007 10 16.0934 0 0
5:15 pm 17:15 Sunny 82 27.7 49 9.2 31 31 N 16 26 29.74 1007 10 16.0934 0 0
5:35 pm 17:35 Sunny 81 27.4 48 8.9 31 31 N 16 26 29.74 1007 10 16.0934 0 0
5:55 pm 17:55 Sunny 81 27.3 47 8.6 31 31 NNW 15 24 29.74 1007 10 16.0934 0 0
6:15 pm 18:15 Sunny 81 27.2 48 9 32 32 N 15 24 29.74 1007 10 16.0934 0 0
6:35 pm 18:35 Sunny 78 25.7 46 8 33 33 NNE 10 17 29.74 1007 10 16.0934 0 0
6:55 pm 18:55 Sunny 79 26.3 47 8.2 32 32 N 13 20 29.74 1007 10 16.0934 0 0
7:15 pm 19:15 Sunny 80 26.5 47 8.1 31 31 N 12 19 29.74 1007 10 16.0934 0 0
7:35 pm 19:35 Sunny 77 25.2 47 8.6 35 35 N 6 9 29.77 1008 10 16.0934 0 0
7:55 pm 19:55 Partly Cloudy 75 24 48 8.9 38 38 N 5 7 29.77 1008 10 16.0934 0 0
8:15 pm 20:15 Mostly Cloudy 75 23.8 49 9.3 40 40 Calm 29.77 1008 10 16.0934 0 0
8:35 pm 20:35 Mostly Cloudy 74 23.3 49 9.7 42 42 Calm 29.77 1008 10 16.0934 0 0
8:55 pm 20:55 Partly Cloudy 71 21.9 47 8.4 42 42 NNW 9 15 29.8 1009 10 16.0934 0 0
9:15 pm 21:15 Clear 68 19.9 48 9 50 50 NE 7 11 29.83 1010 10 16.0934 0 0
9:35 pm 21:35 Clear 66 19.1 48 9 52 52 NNE 3 6 29.83 1010 10 16.0934 0 0
9:55 pm 21:55 Clear 64 17.6 48 8.8 57 57 N 3 6 29.85 1011 10 16.0934 0 0
10:15 pm 22:15 Clear 64 17.5 48 9.1 58 58 N 3 6 29.85 1011 10 16.0934 0 0
10:35 pm 22:35 Clear 58 14.5 48 8.7 68 68 W 9 15 29.88 1012 10 16.0934 0 0
10:55 pm 22:55 Clear 58 14.5 49 9.7 73 73 WNW 9 15 29.88 1012 10 16.0934 0 0

Powered by AerisWeather